Location: Vancouver
(49.2500°N, 123.1330°W)
Time: 23:03:08
(UTC-07:00)

Cosmos 676 Rocket - Visible Passes

Search period start: 30 August 2016 00:00
Search period end: 09 September 2016 00:00
Orbit: 755 x 784 km, 74.0° (Epoch: 30 August)

Date Brightness Start Highest point End Pass type
(mag) Time Alt. Az. Time Alt. Az. Time Alt. Az.
30 Aug 5.1 04:58:45 10° S 05:03:37 43° ESE 05:08:33 10° NE visible
31 Aug 5.8 04:22:58 10° SSE 04:27:16 27° E 04:31:37 10° NE visible
01 Sep 6.4 03:47:45 10° SE 03:51:01 17° E 03:54:19 10° NE visible
01 Sep 4.0 05:27:17 10° SSW 05:32:28 75° WNW 05:37:43 10° NNE visible
02 Sep 6.8 03:14:28 10° E 03:14:52 10° E 03:15:15 10° E visible
02 Sep 4.2 04:51:24 14° S 04:55:55 70° ESE 05:01:09 10° NNE visible
03 Sep 4.9 04:16:03 19° SSE 04:19:28 44° ESE 04:24:25 10° NE visible
03 Sep 4.9 05:57:04 10° WSW 06:01:43 32° NW 06:06:25 10° N visible
04 Sep 5.6 03:40:38 19° SE 03:43:07 28° E 03:47:30 10° NE visible
04 Sep 4.4 05:20:59 16° SW 05:24:58 48° WNW 05:30:03 10° NNE visible
05 Sep 6.1 03:05:11 15° ESE 03:06:52 17° E 03:10:13 10° NE visible
05 Sep 3.9 04:45:30 28° SSW 04:48:19 75° WNW 04:53:35 10° NNE visible
06 Sep 6.6 02:29:59 10° E 02:30:42 10° E 02:31:26 10° E visible
06 Sep 4.1 04:10:00 41° S 04:11:46 71° ESE 04:17:00 10° NNE visible
06 Sep 5.4 05:50:23 10° W 05:54:26 22° NW 05:58:31 10° N visible
07 Sep 4.7 03:34:27 41° SE 03:35:19 44° ESE 03:40:17 10° NE visible
07 Sep 4.9 05:14:46 20° WSW 05:17:34 32° NW 05:22:16 10° N visible
08 Sep 5.5 02:58:52 28° ESE 02:58:58 28° E 03:03:22 10° NE visible
08 Sep 4.4 04:39:11 36° WSW 04:40:49 48° WNW 04:45:55 10° NNE visible
